Time,TemperatureF,DewpointF,PressureIn,WindDirection,WindDirectionDegrees,WindSpeedMPH,WindSpeedGustMPH,Humidity,HourlyPrecipIn,Conditions,Clouds,dailyrainin,SoftwareType,DateUTC
2013-02-10 00:21:00,5.0,-1.0,30.32,North,-999,0.0,0.0,76,0.00,,,-99.99,,2013-02-10 08:21:00,
2013-02-10 00:32:00,5.0,-1.0,30.32,North,-999,0.0,0.0,76,0.00,,,-99.99,,2013-02-10 08:32:00,
2013-02-10 01:21:00,2.0,-4.0,30.32,North,-999,0.0,0.0,77,0.00,,,-99.99,,2013-02-10 09:21:00,
2013-02-10 01:31:00,2.0,-4.0,30.32,North,-999,0.0,0.0,77,0.00,,,-99.99,,2013-02-10 09:31:00,
2013-02-10 02:21:00,2.0,-4.0,30.32,North,0,0.0,2.0,76,0.00,,,-99.99,,2013-02-10 10:21:00,
2013-02-10 02:31:00,2.0,-4.0,30.32,North,0,0.0,2.0,76,0.00,,,-99.99,,2013-02-10 10:31:00,
2013-02-10 03:21:00,0.0,-6.0,30.31,North,0,0.0,2.0,74,0.00,,,-99.99,,2013-02-10 11:21:00,
2013-02-10 03:32:00,0.0,-6.0,30.31,North,0,0.0,2.0,74,0.00,,,-99.99,,2013-02-10 11:32:00,
2013-02-10 04:21:00,-1.0,-7.0,30.34,North,0,0.0,1.0,75,0.00,,,-99.99,,2013-02-10 12:21:00,
2013-02-10 04:32:00,-1.0,-7.0,30.34,North,0,0.0,1.0,75,0.00,,,-99.99,,2013-02-10 12:32:00,
2013-02-10 05:21:00,-2.0,-9.0,30.38,North,-999,0.0,0.0,73,0.00,,,-99.99,,2013-02-10 13:21:00,
2013-02-10 05:31:00,-2.0,-9.0,30.38,North,-999,0.0,0.0,73,0.00,,,-99.99,,2013-02-10 13:31:00,
2013-02-10 06:21:00,-1.0,-7.0,30.43,North,-999,0.0,0.0,74,0.00,,,-99.99,,2013-02-10 14:21:00,
2013-02-10 06:31:00,-1.0,-7.0,30.43,North,-999,0.0,0.0,74,0.00,,,-99.99,,2013-02-10 14:31:00,
2013-02-10 07:21:00,-3.0,-9.0,30.46,North,-999,0.0,0.0,73,0.00,,,-99.99,,2013-02-10 15:21:00,
2013-02-10 07:31:00,-3.0,-9.0,30.46,North,-999,0.0,0.0,73,0.00,,,-99.99,,2013-02-10 15:31:00,
2013-02-10 08:21:00,1.0,-6.0,30.44,North,0,0.0,1.0,72,0.00,,,-99.99,,2013-02-10 16:21:00,
2013-02-10 08:32:00,1.0,-6.0,30.44,North,0,0.0,1.0,72,0.00,,,-99.99,,2013-02-10 16:32:00,
2013-02-10 09:21:00,11.0,5.0,30.36,North,-999,0.0,0.0,77,0.00,,,-99.99,,2013-02-10 17:21:00,
2013-02-10 09:32:00,11.0,5.0,30.36,North,-999,0.0,0.0,77,0.00,,,-99.99,,2013-02-10 17:32:00,
2013-02-10 10:21:00,27.0,13.0,30.27,SSW,210,1.0,3.0,56,0.00,,,-99.99,,2013-02-10 18:21:00,
2013-02-10 10:32:00,27.0,13.0,30.27,SSW,210,1.0,3.0,56,0.00,,,-99.99,,2013-02-10 18:32:00,
2013-02-10 10:42:00,27.0,13.0,30.27,SSW,210,1.0,3.0,56,0.00,,,-99.99,,2013-02-10 18:42:00,
2013-02-10 11:21:00,28.0,12.0,30.27,NE,40,6.0,14.0,50,0.00,,,-99.99,,2013-02-10 19:21:00,
2013-02-10 11:32:00,28.0,12.0,30.27,NE,40,6.0,14.0,50,0.00,,,-99.99,,2013-02-10 19:32:00,
2013-02-10 11:42:00,28.0,12.0,30.27,NE,40,6.0,14.0,50,0.00,,,-99.99,,2013-02-10 19:42:00,
2013-02-10 12:21:00,28.0,15.0,30.29,NE,40,4.0,10.0,58,0.00,,,-99.99,,2013-02-10 20:21:00,
2013-02-10 12:32:00,28.0,15.0,30.29,NE,40,4.0,10.0,58,0.00,,,-99.99,,2013-02-10 20:32:00,
2013-02-10 12:42:00,28.0,15.0,30.29,NE,40,4.0,10.0,58,0.00,,,-99.99,,2013-02-10 20:42:00,
2013-02-10 14:21:00,28.0,16.0,30.28,NE,50,5.0,12.0,60,0.01,,,-99.99,,2013-02-10 22:21:00,
2013-02-10 14:32:00,28.0,16.0,30.28,NE,50,5.0,12.0,60,0.01,,,-99.99,,2013-02-10 22:32:00,
2013-02-10 14:42:00,28.0,16.0,30.28,NE,50,5.0,12.0,60,0.01,,,-99.99,,2013-02-10 22:42:00,
2013-02-10 15:21:00,29.0,14.0,30.29,North,0,0.0,2.0,54,0.00,,,-99.99,,2013-02-10 23:21:00,
2013-02-10 15:32:00,29.0,14.0,30.29,North,0,0.0,2.0,54,0.00,,,-99.99,,2013-02-10 23:32:00,
2013-02-10 15:42:00,29.0,14.0,30.29,North,0,0.0,2.0,54,0.00,,,-99.99,,2013-02-10 23:42:00,
2013-02-10 16:22:00,33.0,9.0,30.26,North,0,0.0,2.0,36,0.00,,,-99.99,,2013-02-11 00:22:00,
2013-02-10 16:32:00,33.0,9.0,30.26,North,0,0.0,2.0,36,0.00,,,-99.99,,2013-02-11 00:32:00,
2013-02-10 16:42:00,33.0,9.0,30.26,North,0,0.0,2.0,36,0.00,,,-99.99,,2013-02-11 00:42:00,
2013-02-10 17:21:00,28.0,7.0,30.30,NNE,20,1.0,3.0,41,0.01,,,-99.99,,2013-02-11 01:21:00,
2013-02-10 17:32:00,28.0,7.0,30.30,NNE,20,1.0,3.0,41,0.01,,,-99.99,,2013-02-11 01:32:00,
2013-02-10 17:41:00,28.0,7.0,30.30,NNE,20,1.0,3.0,41,0.01,,,-99.99,,2013-02-11 01:41:00,
2013-02-10 18:21:00,24.0,11.0,30.34,North,0,0.0,1.0,56,0.00,,,-99.99,,2013-02-11 02:21:00,
2013-02-10 18:31:00,24.0,11.0,30.34,North,0,0.0,1.0,56,0.00,,,-99.99,,2013-02-11 02:31:00,
2013-02-10 18:42:00,24.0,11.0,30.34,North,0,0.0,1.0,56,0.00,,,-99.99,,2013-02-11 02:42:00,
2013-02-10 19:21:00,19.0,10.0,30.36,North,0,0.0,1.0,67,0.00,,,-99.99,,2013-02-11 03:21:00,
2013-02-10 19:31:00,19.0,10.0,30.36,North,0,0.0,1.0,67,0.00,,,-99.99,,2013-02-11 03:31:00,
2013-02-10 19:42:00,19.0,10.0,30.36,North,0,0.0,1.0,67,0.00,,,-99.99,,2013-02-11 03:42:00,
2013-02-10 20:21:00,15.0,7.0,30.35,North,0,0.0,1.0,71,0.00,,,-99.99,,2013-02-11 04:21:00,
2013-02-10 20:31:00,15.0,7.0,30.35,North,0,0.0,1.0,71,0.00,,,-99.99,,2013-02-11 04:31:00,
2013-02-10 20:42:00,15.0,7.0,30.35,North,0,0.0,1.0,71,0.00,,,-99.99,,2013-02-11 04:42:00,
2013-02-10 21:22:00,11.0,4.0,30.25,North,0,0.0,2.0,74,0.00,,,-99.99,,2013-02-11 05:22:00,
2013-02-10 21:31:00,11.0,4.0,30.25,North,0,0.0,2.0,74,0.00,,,-99.99,,2013-02-11 05:31:00,
2013-02-10 22:21:00,12.0,5.0,30.23,North,0,0.0,1.0,74,0.00,,,-99.99,,2013-02-11 06:21:00,
2013-02-10 22:32:00,12.0,5.0,30.23,North,0,0.0,1.0,74,0.00,,,-99.99,,2013-02-11 06:32:00,
2013-02-10 23:21:00,16.0,11.0,30.19,NNE,20,1.0,2.0,79,0.00,,,-99.99,,2013-02-11 07:21:00,
2013-02-10 23:32:00,16.0,11.0,30.19,NNE,20,1.0,2.0,79,0.00,,,-99.99,,2013-02-11 07:32:00,
2013-02-10 23:41:00,16.0,11.0,30.19,NNE,20,1.0,2.0,79,0.00,,,-99.99,,2013-02-11 07:41:00,